owner,sensor,date,latitude,longitude,vertical_datum,sea_water_practical_salinity,qcFlag 
LUMCON,ioos:station:LUMCON:101:1,2019-01-01T00:00:00Z,29.2533,-90.6633,1.963,9.78,1111122 
LUMCON,ioos:station:LUMCON:101:1,2019-01-01T00:15:00Z,29.2533,-90.6633,1.95,9.82,1111122 
LUMCON,ioos:station:LUMCON:101:1,2019-01-01T00:30:00Z,29.2533,-90.6633,1.944,9.63,1111122 
LUMCON,ioos:station:LUMCON:101:1,2019-01-01T00:45:00Z,29.2533,-90.6633,1.949,9.5,1111122 
LUMCON,ioos:station:LUMCON:101:1,2019-01-01T01:00:00Z,29.2533,-90.6633,1.951,9.56,1111122 
LUMCON,ioos:station:LUMCON:101:1,2019-01-01T01:15:00Z,29.2533,-90.6633,1.955,9.44,1111122 
LUMCON,ioos:station:LUMCON:101:1,2019-01-01T01:30:00Z,29.2533,-90.6633,1.951,9.42,1111122 
LUMCON,ioos:station:LUMCON:101:1,2019-01-01T01:45:00Z,29.2533,-90.6633,1.948,9.63,1111122 
LUMCON,ioos:station:LUMCON:101:1,2019-01-01T02:00:00Z,29.2533,-90.6633,1.96,9.44,1111122 
LUMCON,ioos:station:LUMCON:101:1,2019-01-01T02:15:00Z,29.2533,-90.6633,1.967,9.47,1111122 
LUMCON,ioos:station:LUMCON:101:1,2019-01-01T02:30:00Z,29.2533,-90.6633,1.975,9.56,1111122 
LUMCON,ioos:station:LUMCON:101:1,2019-01-01T02:45:00Z,29.2533,-90.6633,1.977,9.72,1111122 
LUMCON,ioos:station:LUMCON:101:1,2019-01-01T03:00:00Z,29.2533,-90.6633,1.982,10.02,1111122 
LUMCON,ioos:station:LUMCON:101:1,2019-01-01T03:15:00Z,29.2533,-90.6633,1.984,10.13,1111122 
LUMCON,ioos:station:LUMCON:101:1,2019-01-01T03:30:00Z,29.2533,-90.6633,1.984,10.04,1111122 
LUMCON,ioos:station:LUMCON:101:1,2019-01-01T03:45:00Z,29.2533,-90.6633,1.983,10.06,1111122 
LUMCON,ioos:station:LUMCON:101:1,2019-01-01T04:00:00Z,29.2533,-90.6633,1.964,10.04,1111122 
LUMCON,ioos:station:LUMCON:101:1,2019-01-01T04:15:00Z,29.2533,-90.6633,1.94,9.97,1111122 
LUMCON,ioos:station:LUMCON:101:1,2019-01-01T04:30:00Z,29.2533,-90.6633,1.928,9.82,1111122 
LUMCON,ioos:station:LUMCON:101:1,2019-01-01T04:45:00Z,29.2533,-90.6633,1.918,9.7,1111122 
LUMCON,ioos:station:LUMCON:101:1,2019-01-01T05:00:00Z,29.2533,-90.6633,1.921,9.39,1111122 
LUMCON,ioos:station:LUMCON:101:1,2019-01-01T05:15:00Z,29.2533,-90.6633,1.923,9.18,1111122 
LUMCON,ioos:station:LUMCON:101:1,2019-01-01T05:30:00Z,29.2533,-90.6633,1.924,9.0,1111122 
LUMCON,ioos:station:LUMCON:101:1,2019-01-01T05:45:00Z,29.2533,-90.6633,1.913,8.91,1111122 
LUMCON,ioos:station:LUMCON:101:1,2019-01-01T06:00:00Z,29.2533,-90.6633,1.91,8.82,1111122 
LUMCON,ioos:station:LUMCON:101:1,2019-01-01T06:15:00Z,29.2533,-90.6633,1.91,8.71,1111122 
LUMCON,ioos:station:LUMCON:101:1,2019-01-01T06:30:00Z,29.2533,-90.6633,1.891,8.57,1111122 
LUMCON,ioos:station:LUMCON:101:1,2019-01-01T06:45:00Z,29.2533,-90.6633,1.884,8.49,1111122 
LUMCON,ioos:station:LUMCON:101:1,2019-01-01T07:00:00Z,29.2533,-90.6633,1.871,8.43,1111122 
LUMCON,ioos:station:LUMCON:101:1,2019-01-01T07:15:00Z,29.2533,-90.6633,1.857,8.36,1111122 
LUMCON,ioos:station:LUMCON:101:1,2019-01-01T07:30:00Z,29.2533,-90.6633,1.845,8.23,1111122 
LUMCON,ioos:station:LUMCON:101:1,2019-01-01T07:45:00Z,29.2533,-90.6633,1.839,8.2,1111122 
LUMCON,ioos:station:LUMCON:101:1,2019-01-01T08:00:00Z,29.2533,-90.6633,1.83,8.1,1111122 
LUMCON,ioos:station:LUMCON:101:1,2019-01-01T08:15:00Z,29.2533,-90.6633,1.82,8.04,1111122 
LUMCON,ioos:station:LUMCON:101:1,2019-01-01T08:30:00Z,29.2533,-90.6633,1.807,7.99,1111122 
LUMCON,ioos:station:LUMCON:101:1,2019-01-01T08:45:00Z,29.2533,-90.6633,1.788,7.97,1111122 
LUMCON,ioos:station:LUMCON:101:1,2019-01-01T09:00:00Z,29.2533,-90.6633,1.775,7.87,1111122 
LUMCON,ioos:station:LUMCON:101:1,2019-01-01T09:15:00Z,29.2533,-90.6633,1.759,7.75,1111122 
LUMCON,ioos:station:LUMCON:101:1,2019-01-01T09:30:00Z,29.2533,-90.6633,1.751,7.7,1111122 
LUMCON,ioos:station:LUMCON:101:1,2019-01-01T09:45:00Z,29.2533,-90.6633,1.745,7.62,1111122 
LUMCON,ioos:station:LUMCON:101:1,2019-01-01T10:00:00Z,29.2533,-90.6633,1.736,7.53,1111122 
LUMCON,ioos:station:LUMCON:101:1,2019-01-01T10:15:00Z,29.2533,-90.6633,1.73,7.53,1111122 
LUMCON,ioos:station:LUMCON:101:1,2019-01-01T10:30:00Z,29.2533,-90.6633,1.717,7.43,1111122 
LUMCON,ioos:station:LUMCON:101:1,2019-01-01T10:45:00Z,29.2533,-90.6633,1.71,7.41,1111122 
LUMCON,ioos:station:LUMCON:101:1,2019-01-01T11:00:00Z,29.2533,-90.6633,1.704,7.44,1111122 
LUMCON,ioos:station:LUMCON:101:1,2019-01-01T11:15:00Z,29.2533,-90.6633,1.695,7.43,1111122 
LUMCON,ioos:station:LUMCON:101:1,2019-01-01T11:30:00Z,29.2533,-90.6633,1.685,7.39,1111122 
LUMCON,ioos:station:LUMCON:101:1,2019-01-01T11:45:00Z,29.2533,-90.6633,1.68,7.38,1111122 
LUMCON,ioos:station:LUMCON:101:1,2019-01-01T12:00:00Z,29.2533,-90.6633,1.673,7.36,1111122 
LUMCON,ioos:station:LUMCON:101:1,2019-01-01T12:15:00Z,29.2533,-90.6633,1.667,7.28,1111122 
LUMCON,ioos:station:LUMCON:101:1,2019-01-01T12:30:00Z,29.2533,-90.6633,1.659,7.22,1111122 
LUMCON,ioos:station:LUMCON:101:1,2019-01-01T12:45:00Z,29.2533,-90.6633,1.658,7.19,1111122 
LUMCON,ioos:station:LUMCON:101:1,2019-01-01T13:00:00Z,29.2533,-90.6633,1.657,7.15,1111122 
LUMCON,ioos:station:LUMCON:101:1,2019-01-01T13:15:00Z,29.2533,-90.6633,1.656,7.17,1111122 
LUMCON,ioos:station:LUMCON:101:1,2019-01-01T13:30:00Z,29.2533,-90.6633,1.657,7.07,1111122 
LUMCON,ioos:station:LUMCON:101:1,2019-01-01T13:45:00Z,29.2533,-90.6633,1.664,7.09,1111122 
LUMCON,ioos:station:LUMCON:101:1,2019-01-01T14:00:00Z,29.2533,-90.6633,1.672,7.02,1111122 
LUMCON,ioos:station:LUMCON:101:1,2019-01-01T14:15:00Z,29.2533,-90.6633,1.672,7.02,1111122 
LUMCON,ioos:station:LUMCON:101:1,2019-01-01T14:30:00Z,29.2533,-90.6633,1.671,6.96,1111122 
LUMCON,ioos:station:LUMCON:101:1,2019-01-01T14:45:00Z,29.2533,-90.6633,1.669,6.98,1111122 
LUMCON,ioos:station:LUMCON:101:1,2019-01-01T15:00:00Z,29.2533,-90.6633,1.667,6.92,1111122 
LUMCON,ioos:station:LUMCON:101:1,2019-01-01T15:15:00Z,29.2533,-90.6633,1.672,6.92,1111122 
LUMCON,ioos:station:LUMCON:101:1,2019-01-01T15:30:00Z,29.2533,-90.6633,1.675,6.96,1111122 
LUMCON,ioos:station:LUMCON:101:1,2019-01-01T15:45:00Z,29.2533,-90.6633,1.693,7.1,1111122 
LUMCON,ioos:station:LUMCON:101:1,2019-01-01T16:00:00Z,29.2533,-90.6633,1.705,7.38,1111122 
LUMCON,ioos:station:LUMCON:101:1,2019-01-01T16:15:00Z,29.2533,-90.6633,1.719,7.35,1111122 
LUMCON,ioos:station:LUMCON:101:1,2019-01-01T16:30:00Z,29.2533,-90.6633,1.727,7.03,1111122 
LUMCON,ioos:station:LUMCON:101:1,2019-01-01T16:45:00Z,29.2533,-90.6633,1.741,6.91,1111122 
LUMCON,ioos:station:LUMCON:101:1,2019-01-01T17:00:00Z,29.2533,-90.6633,1.757,6.68,1111122 
LUMCON,ioos:station:LUMCON:101:1,2019-01-01T17:15:00Z,29.2533,-90.6633,1.768,6.47,1111122 
LUMCON,ioos:station:LUMCON:101:1,2019-01-01T17:30:00Z,29.2533,-90.6633,1.783,6.3,1111122 
LUMCON,ioos:station:LUMCON:101:1,2019-01-01T17:45:00Z,29.2533,-90.6633,1.792,6.23,1111122 
LUMCON,ioos:station:LUMCON:101:1,2019-01-01T18:00:00Z,29.2533,-90.6633,1.802,6.08,1111122 
LUMCON,ioos:station:LUMCON:101:1,2019-01-01T18:15:00Z,29.2533,-90.6633,1.806,6.03,1111122 
LUMCON,ioos:station:LUMCON:101:1,2019-01-01T18:30:00Z,29.2533,-90.6633,1.817,6.11,1111122 
LUMCON,ioos:station:LUMCON:101:1,2019-01-01T18:45:00Z,29.2533,-90.6633,1.828,6.06,1111122 
LUMCON,ioos:station:LUMCON:101:1,2019-01-01T19:00:00Z,29.2533,-90.6633,1.839,6.1,1111122 
LUMCON,ioos:station:LUMCON:101:1,2019-01-01T19:15:00Z,29.2533,-90.6633,1.855,6.18,1111122 
LUMCON,ioos:station:LUMCON:101:1,2019-01-01T19:30:00Z,29.2533,-90.6633,1.863,5.97,1111122 
LUMCON,ioos:station:LUMCON:101:1,2019-01-01T19:45:00Z,29.2533,-90.6633,1.868,5.84,1111122 
LUMCON,ioos:station:LUMCON:101:1,2019-01-01T20:00:00Z,29.2533,-90.6633,1.872,5.82,1111122 
LUMCON,ioos:station:LUMCON:101:1,2019-01-01T20:15:00Z,29.2533,-90.6633,1.884,5.9,1111122 
LUMCON,ioos:station:LUMCON:101:1,2019-01-01T20:30:00Z,29.2533,-90.6633,1.895,6.06,1111122 
LUMCON,ioos:station:LUMCON:101:1,2019-01-01T20:45:00Z,29.2533,-90.6633,1.901,6.02,1111122 
LUMCON,ioos:station:LUMCON:101:1,2019-01-01T21:00:00Z,29.2533,-90.6633,1.907,5.86,1111122 
LUMCON,ioos:station:LUMCON:101:1,2019-01-01T21:15:00Z,29.2533,-90.6633,1.912,6.15,1111122 
LUMCON,ioos:station:LUMCON:101:1,2019-01-01T21:30:00Z,29.2533,-90.6633,1.919,5.96,1111122 
LUMCON,ioos:station:LUMCON:101:1,2019-01-01T21:45:00Z,29.2533,-90.6633,1.926,5.92,1111122 
LUMCON,ioos:station:LUMCON:101:1,2019-01-01T22:00:00Z,29.2533,-90.6633,1.935,6.08,1111122 
LUMCON,ioos:station:LUMCON:101:1,2019-01-01T22:15:00Z,29.2533,-90.6633,1.934,5.94,1111122 
LUMCON,ioos:station:LUMCON:101:1,2019-01-01T22:30:00Z,29.2533,-90.6633,1.938,6.39,1111122 
LUMCON,ioos:station:LUMCON:101:1,2019-01-01T22:45:00Z,29.2533,-90.6633,1.951,6.74,1111122 
LUMCON,ioos:station:LUMCON:101:1,2019-01-01T23:00:00Z,29.2533,-90.6633,1.956,6.51,1111122 
LUMCON,ioos:station:LUMCON:101:1,2019-01-01T23:15:00Z,29.2533,-90.6633,1.961,6.59,1111122 
LUMCON,ioos:station:LUMCON:101:1,2019-01-01T23:30:00Z,29.2533,-90.6633,1.954,6.86,1111122 
LUMCON,ioos:station:LUMCON:101:1,2019-01-01T23:45:00Z,29.2533,-90.6633,1.95,6.89,1111122 
LUMCON,ioos:station:LUMCON:101:1,2019-01-02T00:00:00Z,29.2533,-90.6633,1.958,6.94,1111122 
LUMCON,ioos:station:LUMCON:101:1,2019-01-02T00:15:00Z,29.2533,-90.6633,1.964,6.92,1111122 
LUMCON,ioos:station:LUMCON:101:1,2019-01-02T00:30:00Z,29.2533,-90.6633,1.955,6.95,1111122 
LUMCON,ioos:station:LUMCON:101:1,2019-01-02T00:45:00Z,29.2533,-90.6633,1.951,6.67,1111122 
LUMCON,ioos:station:LUMCON:101:1,2019-01-02T01:00:00Z,29.2533,-90.6633,1.948,6.47,1111122 
LUMCON,ioos:station:LUMCON:101:1,2019-01-02T01:15:00Z,29.2533,-90.6633,1.954,6.49,1111122 
LUMCON,ioos:station:LUMCON:101:1,2019-01-02T01:30:00Z,29.2533,-90.6633,1.955,6.48,1111122 
LUMCON,ioos:station:LUMCON:101:1,2019-01-02T01:45:00Z,29.2533,-90.6633,1.952,6.56,1111122 
LUMCON,ioos:station:LUMCON:101:1,2019-01-02T02:00:00Z,29.2533,-90.6633,1.951,6.5,1111122 
LUMCON,ioos:station:LUMCON:101:1,2019-01-02T02:15:00Z,29.2533,-90.6633,1.943,6.65,1111122 
LUMCON,ioos:station:LUMCON:101:1,2019-01-02T02:30:00Z,29.2533,-90.6633,1.954,6.64,1111122 
LUMCON,ioos:station:LUMCON:101:1,2019-01-02T02:45:00Z,29.2533,-90.6633,1.967,6.49,1111122 
LUMCON,ioos:station:LUMCON:101:1,2019-01-02T03:00:00Z,29.2533,-90.6633,1.957,6.6,1111122 
LUMCON,ioos:station:LUMCON:101:1,2019-01-02T03:15:00Z,29.2533,-90.6633,1.954,6.66,1111122 
LUMCON,ioos:station:LUMCON:101:1,2019-01-02T03:30:00Z,29.2533,-90.6633,1.946,6.82,1111122 
LUMCON,ioos:station:LUMCON:101:1,2019-01-02T03:45:00Z,29.2533,-90.6633,1.934,6.88,1111122 
LUMCON,ioos:station:LUMCON:101:1,2019-01-02T04:00:00Z,29.2533,-90.6633,1.924,6.68,1111122 
LUMCON,ioos:station:LUMCON:101:1,2019-01-02T04:15:00Z,29.2533,-90.6633,1.925,6.57,1111122 
LUMCON,ioos:station:LUMCON:101:1,2019-01-02T04:30:00Z,29.2533,-90.6633,1.913,6.54,1111122 
LUMCON,ioos:station:LUMCON:101:1,2019-01-02T04:45:00Z,29.2533,-90.6633,1.911,6.46,1111122 
LUMCON,ioos:station:LUMCON:101:1,2019-01-02T05:00:00Z,29.2533,-90.6633,1.912,6.45,1111122 
LUMCON,ioos:station:LUMCON:101:1,2019-01-02T05:15:00Z,29.2533,-90.6633,1.899,6.47,1111122 
LUMCON,ioos:station:LUMCON:101:1,2019-01-02T05:30:00Z,29.2533,-90.6633,1.885,6.47,1111122 
LUMCON,ioos:station:LUMCON:101:1,2019-01-02T05:45:00Z,29.2533,-90.6633,1.876,6.42,1111122 
LUMCON,ioos:station:LUMCON:101:1,2019-01-02T06:00:00Z,29.2533,-90.6633,1.865,6.37,1111122 
LUMCON,ioos:station:LUMCON:101:1,2019-01-02T06:15:00Z,29.2533,-90.6633,1.858,6.31,1111122 
LUMCON,ioos:station:LUMCON:101:1,2019-01-02T06:30:00Z,29.2533,-90.6633,1.851,6.26,1111122 
LUMCON,ioos:station:LUMCON:101:1,2019-01-02T06:45:00Z,29.2533,-90.6633,1.843,6.23,1111122 
LUMCON,ioos:station:LUMCON:101:1,2019-01-02T07:00:00Z,29.2533,-90.6633,1.835,6.35,1111122 
LUMCON,ioos:station:LUMCON:101:1,2019-01-02T07:15:00Z,29.2533,-90.6633,1.818,6.26,1111122 
LUMCON,ioos:station:LUMCON:101:1,2019-01-02T07:30:00Z,29.2533,-90.6633,1.801,6.25,1111122 
LUMCON,ioos:station:LUMCON:101:1,2019-01-02T07:45:00Z,29.2533,-90.6633,1.793,6.25,1111122 
LUMCON,ioos:station:LUMCON:101:1,2019-01-02T08:00:00Z,29.2533,-90.6633,1.784,6.27,1111122 
LUMCON,ioos:station:LUMCON:101:1,2019-01-02T08:15:00Z,29.2533,-90.6633,1.781,6.29,1111122 
LUMCON,ioos:station:LUMCON:101:1,2019-01-02T08:30:00Z,29.2533,-90.6633,1.775,6.44,1111122 
LUMCON,ioos:station:LUMCON:101:1,2019-01-02T08:45:00Z,29.2533,-90.6633,1.766,6.37,1111122 
LUMCON,ioos:station:LUMCON:101:1,2019-01-02T09:00:00Z,29.2533,-90.6633,1.758,6.41,1111122 
LUMCON,ioos:station:LUMCON:101:1,2019-01-02T09:15:00Z,29.2533,-90.6633,1.756,6.47,1111122 
LUMCON,ioos:station:LUMCON:101:1,2019-01-02T09:30:00Z,29.2533,-90.6633,1.742,6.52,1111122 
LUMCON,ioos:station:LUMCON:101:1,2019-01-02T09:45:00Z,29.2533,-90.6633,1.726,6.57,1111122 
LUMCON,ioos:station:LUMCON:101:1,2019-01-02T10:00:00Z,29.2533,-90.6633,1.707,6.65,1111122 
LUMCON,ioos:station:LUMCON:101:1,2019-01-02T10:15:00Z,29.2533,-90.6633,1.7,6.68,1111122 
LUMCON,ioos:station:LUMCON:101:1,2019-01-02T10:30:00Z,29.2533,-90.6633,1.697,6.72,1111122 
LUMCON,ioos:station:LUMCON:101:1,2019-01-02T10:45:00Z,29.2533,-90.6633,1.697,6.83,1111122 
LUMCON,ioos:station:LUMCON:101:1,2019-01-02T11:00:00Z,29.2533,-90.6633,1.69,6.8,1111122 
LUMCON,ioos:station:LUMCON:101:1,2019-01-02T11:15:00Z,29.2533,-90.6633,1.674,6.8,1111122 
LUMCON,ioos:station:LUMCON:101:1,2019-01-02T11:30:00Z,29.2533,-90.6633,1.673,6.82,1111122 
LUMCON,ioos:station:LUMCON:101:1,2019-01-02T11:45:00Z,29.2533,-90.6633,1.662,6.85,1111122 
LUMCON,ioos:station:LUMCON:101:1,2019-01-02T12:00:00Z,29.2533,-90.6633,1.654,6.87,1111122 
LUMCON,ioos:station:LUMCON:101:1,2019-01-02T12:15:00Z,29.2533,-90.6633,1.656,6.86,1111122 
LUMCON,ioos:station:LUMCON:101:1,2019-01-02T12:30:00Z,29.2533,-90.6633,1.642,6.83,1111122 
LUMCON,ioos:station:LUMCON:101:1,2019-01-02T12:45:00Z,29.2533,-90.6633,1.635,6.87,1111122 
LUMCON,ioos:station:LUMCON:101:1,2019-01-02T13:00:00Z,29.2533,-90.6633,1.641,6.83,1111122 
LUMCON,ioos:station:LUMCON:101:1,2019-01-02T13:15:00Z,29.2533,-90.6633,1.638,6.86,1111122 
LUMCON,ioos:station:LUMCON:101:1,2019-01-02T13:30:00Z,29.2533,-90.6633,1.653,6.86,1111122 
LUMCON,ioos:station:LUMCON:101:1,2019-01-02T13:45:00Z,29.2533,-90.6633,1.654,6.84,1111122 
LUMCON,ioos:station:LUMCON:101:1,2019-01-02T14:00:00Z,29.2533,-90.6633,1.664,6.77,1111122 
LUMCON,ioos:station:LUMCON:101:1,2019-01-02T14:15:00Z,29.2533,-90.6633,1.662,6.79,1111122 
LUMCON,ioos:station:LUMCON:101:1,2019-01-02T14:30:00Z,29.2533,-90.6633,1.659,6.74,1111122 
LUMCON,ioos:station:LUMCON:101:1,2019-01-02T14:45:00Z,29.2533,-90.6633,1.648,6.73,1111122 
LUMCON,ioos:station:LUMCON:101:1,2019-01-02T15:00:00Z,29.2533,-90.6633,1.655,6.71,1111122 
LUMCON,ioos:station:LUMCON:101:1,2019-01-02T15:15:00Z,29.2533,-90.6633,1.665,6.62,1111122 
LUMCON,ioos:station:LUMCON:101:1,2019-01-02T15:30:00Z,29.2533,-90.6633,1.682,6.6,1111122 
LUMCON,ioos:station:LUMCON:101:1,2019-01-02T15:45:00Z,29.2533,-90.6633,1.714,6.56,1111122 
LUMCON,ioos:station:LUMCON:101:1,2019-01-02T16:00:00Z,29.2533,-90.6633,1.722,6.27,1111122 
LUMCON,ioos:station:LUMCON:101:1,2019-01-02T16:15:00Z,29.2533,-90.6633,1.729,5.86,1111122 
LUMCON,ioos:station:LUMCON:101:1,2019-01-02T16:30:00Z,29.2533,-90.6633,1.739,5.6,1111122 
LUMCON,ioos:station:LUMCON:101:1,2019-01-02T16:45:00Z,29.2533,-90.6633,1.737,5.47,1111122 
LUMCON,ioos:station:LUMCON:101:1,2019-01-02T17:00:00Z,29.2533,-90.6633,1.743,5.5,1111122 
LUMCON,ioos:station:LUMCON:101:1,2019-01-02T17:15:00Z,29.2533,-90.6633,1.755,5.53,1111122 
LUMCON,ioos:station:LUMCON:101:1,2019-01-02T17:30:00Z,29.2533,-90.6633,1.764,5.78,1111122 
LUMCON,ioos:station:LUMCON:101:1,2019-01-02T17:45:00Z,29.2533,-90.6633,1.775,5.88,1111122 
LUMCON,ioos:station:LUMCON:101:1,2019-01-02T18:00:00Z,29.2533,-90.6633,1.799,6.01,1111122 
LUMCON,ioos:station:LUMCON:101:1,2019-01-02T18:15:00Z,29.2533,-90.6633,1.809,6.19,1111122 
LUMCON,ioos:station:LUMCON:101:1,2019-01-02T18:30:00Z,29.2533,-90.6633,1.828,6.24,1111122 
LUMCON,ioos:station:LUMCON:101:1,2019-01-02T18:45:00Z,29.2533,-90.6633,1.838,6.21,1111122 
LUMCON,ioos:station:LUMCON:101:1,2019-01-02T19:00:00Z,29.2533,-90.6633,1.844,6.35,1111122 
LUMCON,ioos:station:LUMCON:101:1,2019-01-02T19:15:00Z,29.2533,-90.6633,1.859,6.36,1111122 
LUMCON,ioos:station:LUMCON:101:1,2019-01-02T19:30:00Z,29.2533,-90.6633,1.866,6.43,1111122 
LUMCON,ioos:station:LUMCON:101:1,2019-01-02T19:45:00Z,29.2533,-90.6633,1.875,6.41,1111122 
LUMCON,ioos:station:LUMCON:101:1,2019-01-02T20:00:00Z,29.2533,-90.6633,1.892,6.41,1111122 
LUMCON,ioos:station:LUMCON:101:1,2019-01-02T20:15:00Z,29.2533,-90.6633,1.899,6.41,1111122 
LUMCON,ioos:station:LUMCON:101:1,2019-01-02T20:30:00Z,29.2533,-90.6633,1.912,6.41,1111122 
LUMCON,ioos:station:LUMCON:101:1,2019-01-02T20:45:00Z,29.2533,-90.6633,1.921,6.41,1111122 
LUMCON,ioos:station:LUMCON:101:1,2019-01-02T21:00:00Z,29.2533,-90.6633,1.927,6.44,1111122 
LUMCON,ioos:station:LUMCON:101:1,2019-01-02T21:15:00Z,29.2533,-90.6633,1.929,6.52,1111122 
LUMCON,ioos:station:LUMCON:101:1,2019-01-02T21:30:00Z,29.2533,-90.6633,1.936,6.54,1111122 
LUMCON,ioos:station:LUMCON:101:1,2019-01-02T21:45:00Z,29.2533,-90.6633,1.945,6.6,1111122 
LUMCON,ioos:station:LUMCON:101:1,2019-01-02T22:00:00Z,29.2533,-90.6633,1.959,6.7,1111122 
LUMCON,ioos:station:LUMCON:101:1,2019-01-02T22:15:00Z,29.2533,-90.6633,1.969,6.79,1111122 
LUMCON,ioos:station:LUMCON:101:1,2019-01-02T22:30:00Z,29.2533,-90.6633,1.974,6.83,1111122 
LUMCON,ioos:station:LUMCON:101:1,2019-01-02T22:45:00Z,29.2533,-90.6633,1.981,6.93,1111122 
LUMCON,ioos:station:LUMCON:101:1,2019-01-02T23:00:00Z,29.2533,-90.6633,1.994,7.08,1111122 
LUMCON,ioos:station:LUMCON:101:1,2019-01-02T23:15:00Z,29.2533,-90.6633,2.0,7.3,1111122 
LUMCON,ioos:station:LUMCON:101:1,2019-01-02T23:30:00Z,29.2533,-90.6633,2.011,7.42,1111122 
LUMCON,ioos:station:LUMCON:101:1,2019-01-02T23:45:00Z,29.2533,-90.6633,2.014,7.77,1111122 
LUMCON,ioos:station:LUMCON:101:1,2019-01-03T00:00:00Z,29.2533,-90.6633,2.02,8.05,1111122 
LUMCON,ioos:station:LUMCON:101:1,2019-01-03T00:15:00Z,29.2533,-90.6633,2.032,8.2,1111122 
LUMCON,ioos:station:LUMCON:101:1,2019-01-03T00:30:00Z,29.2533,-90.6633,2.048,8.4,1111122 
LUMCON,ioos:station:LUMCON:101:1,2019-01-03T00:45:00Z,29.2533,-90.6633,2.048,8.69,1111122 
LUMCON,ioos:station:LUMCON:101:1,2019-01-03T01:00:00Z,29.2533,-90.6633,2.056,8.72,1111122 
LUMCON,ioos:station:LUMCON:101:1,2019-01-03T01:15:00Z,29.2533,-90.6633,2.056,9.07,1111122 
LUMCON,ioos:station:LUMCON:101:1,2019-01-03T01:30:00Z,29.2533,-90.6633,2.055,8.91,1111122 
LUMCON,ioos:station:LUMCON:101:1,2019-01-03T01:45:00Z,29.2533,-90.6633,2.064,8.86,1111122 
LUMCON,ioos:station:LUMCON:101:1,2019-01-03T02:00:00Z,29.2533,-90.6633,2.07,9.07,1111122 
LUMCON,ioos:station:LUMCON:101:1,2019-01-03T02:15:00Z,29.2533,-90.6633,2.069,9.09,1111122 
LUMCON,ioos:station:LUMCON:101:1,2019-01-03T02:30:00Z,29.2533,-90.6633,2.065,8.96,1111122 
LUMCON,ioos:station:LUMCON:101:1,2019-01-03T02:45:00Z,29.2533,-90.6633,2.076,9.29,1111122 
LUMCON,ioos:station:LUMCON:101:1,2019-01-03T03:00:00Z,29.2533,-90.6633,2.063,9.31,1111122 
LUMCON,ioos:station:LUMCON:101:1,2019-01-03T03:15:00Z,29.2533,-90.6633,2.067,9.41,1111122 
LUMCON,ioos:station:LUMCON:101:1,2019-01-03T03:30:00Z,29.2533,-90.6633,2.073,9.52,1111122 
LUMCON,ioos:station:LUMCON:101:1,2019-01-03T03:45:00Z,29.2533,-90.6633,2.074,9.59,1111122 
LUMCON,ioos:station:LUMCON:101:1,2019-01-03T04:00:00Z,29.2533,-90.6633,2.071,9.55,1111122 
LUMCON,ioos:station:LUMCON:101:1,2019-01-03T04:15:00Z,29.2533,-90.6633,2.062,9.54,1111122 
LUMCON,ioos:station:LUMCON:101:1,2019-01-03T04:30:00Z,29.2533,-90.6633,2.046,9.37,1111122 
LUMCON,ioos:station:LUMCON:101:1,2019-01-03T04:45:00Z,29.2533,-90.6633,2.034,8.82,1111122 
LUMCON,ioos:station:LUMCON:101:1,2019-01-03T05:00:00Z,29.2533,-90.6633,2.017,8.98,1111122 
LUMCON,ioos:station:LUMCON:101:1,2019-01-03T05:15:00Z,29.2533,-90.6633,2.006,8.82,1111122 
LUMCON,ioos:station:LUMCON:101:1,2019-01-03T05:30:00Z,29.2533,-90.6633,1.994,8.73,1111122 
LUMCON,ioos:station:LUMCON:101:1,2019-01-03T05:45:00Z,29.2533,-90.6633,1.987,8.76,1111122 
LUMCON,ioos:station:LUMCON:101:1,2019-01-03T06:00:00Z,29.2533,-90.6633,1.979,8.76,1111122 
LUMCON,ioos:station:LUMCON:101:1,2019-01-03T06:15:00Z,29.2533,-90.6633,1.965,8.84,1111122 
LUMCON,ioos:station:LUMCON:101:1,2019-01-03T06:30:00Z,29.2533,-90.6633,1.954,8.93,1111122 
LUMCON,ioos:station:LUMCON:101:1,2019-01-03T06:45:00Z,29.2533,-90.6633,1.945,8.65,1111122 
LUMCON,ioos:station:LUMCON:101:1,2019-01-03T07:00:00Z,29.2533,-90.6633,1.932,8.58,1111122 
LUMCON,ioos:station:LUMCON:101:1,2019-01-03T07:15:00Z,29.2533,-90.6633,1.916,8.52,1111122 
LUMCON,ioos:station:LUMCON:101:1,2019-01-03T07:30:00Z,29.2533,-90.6633,1.904,8.67,1111122 
LUMCON,ioos:station:LUMCON:101:1,2019-01-03T07:45:00Z,29.2533,-90.6633,1.897,8.59,1111122 
LUMCON,ioos:station:LUMCON:101:1,2019-01-03T08:00:00Z,29.2533,-90.6633,1.884,8.52,1111122 
LUMCON,ioos:station:LUMCON:101:1,2019-01-03T08:15:00Z,29.2533,-90.6633,1.88,8.23,1111122 
LUMCON,ioos:station:LUMCON:101:1,2019-01-03T08:30:00Z,29.2533,-90.6633,1.863,8.09,1111122 
LUMCON,ioos:station:LUMCON:101:1,2019-01-03T08:45:00Z,29.2533,-90.6633,1.842,7.85,1111122 
LUMCON,ioos:station:LUMCON:101:1,2019-01-03T09:00:00Z,29.2533,-90.6633,1.826,7.76,1111122 
LUMCON,ioos:station:LUMCON:101:1,2019-01-03T09:15:00Z,29.2533,-90.6633,1.81,7.68,1111122 
LUMCON,ioos:station:LUMCON:101:1,2019-01-03T09:30:00Z,29.2533,-90.6633,1.789,7.68,1111122 
LUMCON,ioos:station:LUMCON:101:1,2019-01-03T09:45:00Z,29.2533,-90.6633,1.772,7.57,1111122 
LUMCON,ioos:station:LUMCON:101:1,2019-01-03T10:00:00Z,29.2533,-90.6633,1.751,7.5,1111122 
LUMCON,ioos:station:LUMCON:101:1,2019-01-03T10:15:00Z,29.2533,-90.6633,1.738,7.52,1111122 
LUMCON,ioos:station:LUMCON:101:1,2019-01-03T10:30:00Z,29.2533,-90.6633,1.724,7.45,1111122 
LUMCON,ioos:station:LUMCON:101:1,2019-01-03T10:45:00Z,29.2533,-90.6633,1.71,7.37,1111122 
LUMCON,ioos:station:LUMCON:101:1,2019-01-03T11:00:00Z,29.2533,-90.6633,1.699,7.26,1111122 
LUMCON,ioos:station:LUMCON:101:1,2019-01-03T11:15:00Z,29.2533,-90.6633,1.685,7.2,1111122 
LUMCON,ioos:station:LUMCON:101:1,2019-01-03T11:30:00Z,29.2533,-90.6633,1.673,7.13,1111122 
LUMCON,ioos:station:LUMCON:101:1,2019-01-03T11:45:00Z,29.2533,-90.6633,1.667,7.02,1111122 
LUMCON,ioos:station:LUMCON:101:1,2019-01-03T12:00:00Z,29.2533,-90.6633,1.656,6.98,1111122 
LUMCON,ioos:station:LUMCON:101:1,2019-01-03T12:15:00Z,29.2533,-90.6633,1.647,6.92,1111122 
LUMCON,ioos:station:LUMCON:101:1,2019-01-03T12:30:00Z,29.2533,-90.6633,1.634,6.89,1111122 
LUMCON,ioos:station:LUMCON:101:1,2019-01-03T12:45:00Z,29.2533,-90.6633,1.626,6.86,1111122 
LUMCON,ioos:station:LUMCON:101:1,2019-01-03T13:00:00Z,29.2533,-90.6633,1.613,6.82,1111122 
LUMCON,ioos:station:LUMCON:101:1,2019-01-03T13:15:00Z,29.2533,-90.6633,1.607,6.8,1111122 
LUMCON,ioos:station:LUMCON:101:1,2019-01-03T13:30:00Z,29.2533,-90.6633,1.598,6.77,1111122 
LUMCON,ioos:station:LUMCON:101:1,2019-01-03T13:45:00Z,29.2533,-90.6633,1.591,6.75,1111122 
LUMCON,ioos:station:LUMCON:101:1,2019-01-03T14:00:00Z,29.2533,-90.6633,1.587,6.69,1111122 
LUMCON,ioos:station:LUMCON:101:1,2019-01-03T14:15:00Z,29.2533,-90.6633,1.581,6.69,1111122 
LUMCON,ioos:station:LUMCON:101:1,2019-01-03T14:30:00Z,29.2533,-90.6633,1.572,6.69,1111122 
LUMCON,ioos:station:LUMCON:101:1,2019-01-03T14:45:00Z,29.2533,-90.6633,1.575,6.66,1111122 
LUMCON,ioos:station:LUMCON:101:1,2019-01-03T15:00:00Z,29.2533,-90.6633,1.57,6.64,1111122 
LUMCON,ioos:station:LUMCON:101:1,2019-01-03T15:15:00Z,29.2533,-90.6633,1.568,6.6,1111122 
LUMCON,ioos:station:LUMCON:101:1,2019-01-03T15:30:00Z,29.2533,-90.6633,1.577,6.61,1111122 
LUMCON,ioos:station:LUMCON:101:1,2019-01-03T15:45:00Z,29.2533,-90.6633,1.591,6.56,1111122 
LUMCON,ioos:station:LUMCON:101:1,2019-01-03T16:00:00Z,29.2533,-90.6633,1.599,6.55,1111122 
LUMCON,ioos:station:LUMCON:101:1,2019-01-03T16:15:00Z,29.2533,-90.6633,1.61,6.54,1111122 
LUMCON,ioos:station:LUMCON:101:1,2019-01-03T16:30:00Z,29.2533,-90.6633,1.62,6.52,1111122 
LUMCON,ioos:station:LUMCON:101:1,2019-01-03T16:45:00Z,29.2533,-90.6633,1.624,6.59,1111122 
LUMCON,ioos:station:LUMCON:101:1,2019-01-03T17:00:00Z,29.2533,-90.6633,1.628,6.59,1111122 
LUMCON,ioos:station:LUMCON:101:1,2019-01-03T17:15:00Z,29.2533,-90.6633,1.641,6.6,1111122 
LUMCON,ioos:station:LUMCON:101:1,2019-01-03T17:30:00Z,29.2533,-90.6633,1.663,6.59,1111122 